Miscellaneous Local Product
Issued by NWS North Platte, NE

Home | Current Version | Previous Version | Text Only | Print | Product List | Glossary On
Versions: 1 2 3 4 5 6 7 8 9 10 11 12 13 14 15 16 17 18 19 20 21 22 23 24 25 26 27 28 29 30 31 32 33 34 35 36 37 38 39 40 41 42 43 44 45 46 47 48 49 50
000
AXUS43 KLBF 220810
MISLBF


WESTERN AND NORTH CENTRAL NEBRASKA HOURLY WEATHER ROUNDUP
NATIONAL WEATHER SERVICE NORTH PLATTE NE
300 AM CDT TUE JUL 22 2014

***STATIONS NOT REPORTING VARIABLES SUCH AS SKY/WEATHER OR
PRESSURE ARE PROVIDED BY THE NEBRASKA DEPARTMENT OF
ROADS...RAWS...AND APRS NETWORKS...AND ARE NOT UNDER
NATIONAL WEATHER SERVICE QUALITY CONTROL***

...OBSERVATIONS IN AND NEAR THE EASTERN PANHANDLE OF NEBRASKA...

CITY           SKY/WX    TMP DP  RH WIND       PRES   REMARKS
PINE RIDGE     CLEAR     70  63  78 E9        30.12R
CHADRON        PTCLDY    72  61  68 NE9       30.12R
ALLIANCE       PTCLDY    72  51  47 N3        30.10R
SIDNEY         PTCLDY    73  51  46 S8        30.10F
WHITECLAY        N/A     72  61  68 CALM        N/A
RUSHVILLE        N/A     74  63  69 NE18        N/A
GORDON           N/A     76  69  79 N18         N/A
CRESCENT LAKE    N/A     76  50  39 N7G17       N/A
LISCO            N/A     80  56  44 NE12        N/A
BIG SPRINGS      N/A     73  61  67 S3          N/A
$$

...OBSERVATIONS IN NORTH CENTRAL NEBRASKA...

CITY           SKY/WX    TMP DP  RH WIND       PRES   REMARKS
VALENTINE      PTCLDY    76  64  66 N15G21    30.06R
THEDFORD       MOCLDY    73  54  50 W8        30.05R
AINSWORTH      PTCLDY    74  62  64 N10       30.01R
O`NEILL        MOCLDY    78  63  58 NW28G38   29.97R
BROKEN BOW     PTCLDY    77  60  55 W7        29.97S
BROWNLEE         N/A     82  54  38 N22         N/A
SPRINGVIEW       N/A     79  64  59 NW7G16      N/A
DUNNING          N/A     79  55  43 CALM        N/A
ROSE             N/A     85  64  49 N14         N/A
NEWPORT          N/A     81  64  55 NE13        N/A
SARGENT          N/A     74  63  67 CALM        N/A
COMSTOCK         N/A     83  68  61 W9          N/A
CHAMBERS         N/A     75  62  64 S3          N/A
$$

...OBSERVATIONS IN SOUTHWEST NEBRASKA AND FAR NORTHEAST COLORADO...

CITY           SKY/WX    TMP DP  RH WIND       PRES   REMARKS
WRAY             N/A     73  60  63 W15       30.13R
HOLYOKE        FAIR      73  61  64 SW7       30.09S
IMPERIAL       CLEAR     66  59  78 CALM      30.06S
OGALLALA       PTCLDY    72  60  67 SW8       30.03F
NORTH PLATTE   MOCLDY    80  59  48 N5        30.00R
MCCOOK         CLEAR     75  64  68 W9        30.01F
LEXINGTON      CLEAR     72  64  76 W5        29.99S
PAXTON           N/A     76  62  62 S7          N/A
SUTHERLAND       N/A     81  68  65 SW10        N/A
BRADY            N/A     79  60  52 S3          N/A
GOTHENBURG       N/A     82  56  41 W3          N/A
CALLAWAY         N/A     77  63  61 SW14        N/A
$$

...NORTH PLATTE AREA...

CITY           SKY/WX    TMP DP  RH WIND       PRES   REMARKS
AIRPORT        MOCLDY    80  59  48 N5        30.00R
$$

...SOME WEATHER OBSERVATIONS FROM AROUND THE REGION...

CITY           SKY/WX    TMP DP  RH WIND       PRES   REMARKS
DENVER         PTCLDY    71  46  40 SW13      30.19S
LARAMIE        MOCLDY    59  38  45 CALM      30.35S
CHEYENNE       CLEAR     62  40  44 W6        30.27S
SCOTTSBLUFF    CLEAR     67  55  65 NE15      30.10R
RAPID CITY     PTCLDY    65  62  90 NW3       30.11R
PIERRE         LGT RAIN  68  64  87 S9        30.05R
WINNER         FAIR      74  63  68 NW20G25   30.07R
SIOUX FALLS    CLEAR     78  74  87 N12       29.86R
OMAHA          CLOUDY    87  71  58 S5        29.88S HX  93
GRAND ISLAND   MOCLDY    83  70  64 SW15      29.96R
KANSAS CITY    PTCLDY    79  74  84 S13       29.98S
WICHITA        CLOUDY    79  74  84 S8        30.00S
HAYS           PTCLDY    73  59  60 W7        30.01S
LIBERAL        MOCLDY    72  63  73 S8        30.05R
GOODLAND       CLEAR     71  61  70 SW14      30.08F
$$



USA.gov is the U.S. government's official web portal to all federal, state and local government web resources and services.